OBJECT AE, 62405

Orbit data source: Space-Track

You're viewing an Uncataloged Satellite

Recently launched and/or uncataloged satellites may have evolving metadata. Metadata may include but not limited to: Owner, Maufacturer, Bus, Motor, and Mission.

OBJECT AE, 62405 is a satellite in LEO that was launched on Sat, 21 Dec 2024 UTC via an FALCON 9 launch vehicle from the Air Force Western Test Range (AFWTR). Unknown objects in Earth's orbit typically refer to objects detected orbiting the Earth but have not yet been identified or cataloged. These objects could be anything from previously untracked satellites, spent rocket stages, debris from satellite collisions, or even natural meteoroids temporarily captured by Earth's gravity.

Loading next visibility...
Identifier
62405, 2024-247AE
Orbit
LEO
Country
Flag of TBDTBD
Related business
Flag of USONDO Space LLC (US)
Manufacturer
ONDO Space
Mission
Operational Commercial Communications
Bus & Motor
CUBESAT 0.5U, Unknown motor
Mass
0.25 kg wet, 0.25 kg dry
Launch date (UTC)
2024-12-21 (1 year ago)
Launch vehicle
FALCON 9
Launch site
Air Force Western Test Range (AFWTR)
Object type
Unknown
Shape & HBR
Box, 0.1 m
Radar Cross Section
0.004 m², Small (<0.1 m²)

Expand to show TLE details & history
Last TLE update: 1 day ago

TLE from 1 day ago
0 OBJECT AE
1 62405U 24247AE  25348.30846030  .00037819  00000-0  91098-3 0  9990
2 62405  44.9796 202.1354 0009840 199.4222 160.6292 15.40635816 54335
Epoch: 2025-12-14T07:24Z
TLE epoch observation values (Epoch: 2025-12-14T07:24:10.969Z)
Latitude
-0.00003°
Longitude
7.86642°
Altitude
450.561 km
Speed
7.64 km/s
True Right ascension
13h 28m 32s
True Declination
0° 00' 00"
Sunlit
Object was in daylight at epoch
Visualization orbit readout
Latitude
Unknown
Longitude
Unknown
Altitude
Unknown
Speed
Unknown
Apparent Right ascension
Unknown
Apparent Declination
Unknown
Sunlit
N/A
Visualization observer readout
Local Sidereal Time
17:08:46
Azimuth
Unknown
Elevation
Unknown
Doppler factor
Unknown
Orbital elements
Apogee altitude
452.568 km
Perigee altitude
439.139 km
Semi-major axis
6,823.99 km
Eccentricity
0.00098
Inclination
44.9796°
RAAN
202.1354°
Arg. of periapsis
199.4222°
True anomaly
160.66656°
Mean anomaly
160.6292°
Eccentric anomaly
160.64788°
Mean motion
3.85022 °/min
Orbital period
93.5 mins
BSTAR
0.00091098
Loading maneuver chart data...
Computing Atmospheric mass density...
Loading historical data...
Loading historical data...
Loading historical data...
Loading historical data...
Loading historical data...
Loading historical data...
Loading historical data...

Documentation

Showing up to 5 results
|